Regional Weather Roundup
Issued by NWS Burlington, VT

Home | Current Version | Previous Version | Text Only | Print | Product List | Glossary On
Versions: 1 2 3 4 5 6 7 8 9 10 11 12 13 14 15 16 17 18 19 20 21 22 23 24 25 26 27 28 29 30 31 32 33 34 35 36 37 38 39 40 41 42 43 44 45 46 47 48 49 50
000
ASUS41 KBTV 180130
RWRBTV
VERMONT REGIONAL WEATHER ROUNDUP
NATIONAL WEATHER SERVICE BURLINGTON VT
800 PM EST WED DEC 17 2014

NOTE: "FAIR" INDICATES FEW OR NO CLOUDS BELOW 12,000 FEET WITH NO
SIGNIFICANT WEATHER AND/OR OBSTRUCTIONS TO VISIBILITY.

* THESE REPORTS ARE NOT UNDER NWS QUALITY CONTROL AND/OR DO NOT
  REPORT WEATHER SUCH AS PRECIPITATION AND FOG.

VTZ001>019-180200-
_____VERMONT_____


CITY           SKY/WX    TMP DP  RH WIND       PRES   REMARKS
BURLINGTON     LGT RAIN  36  34  92 CALM      29.77S FOG
MONTPELIER     CLOUDY    34  33  96 NW9       29.76S
MORRISVILLE    CLOUDY    34  32  92 CALM      29.75S FOG
ST. JOHNSBURY*   N/A     35  34  96 MISG      29.71F
LYNDONVILLE*   LGT RAIN  35  33  92 W5        29.72F
MIDDLEBURY*    DRIZZLE   35  35 100 CALM      29.76F
RUTLAND*       CLOUDY    36  34  93 S3        29.77S
SPRINGFIELD    CLOUDY    35  34  96 CALM      29.74F
HIGHGATE*      CLOUDY    34  33  98 CALM      29.77S FOG
NEWPORT*       DRIZZLE   32  32  99 CALM      29.73F
BENNINGTON     LGT SNOW  34  31  88 SW9       29.82S FOG
SUTTON*          N/A     34 N/A N/A MISG        N/A
GALLUP MILLS*    N/A     32 N/A N/A MISG        N/A
UNION VILLAGE*   N/A     32 N/A N/A MISG        N/A
MT. MANSFIELD*   N/A     27 N/A N/A CALM        N/A

_____LAKE CHAMPLAIN_____


CITY           SKY/WX    TMP DP  RH WIND       PRES   REMARKS
BURTON ISLAND*   N/A     36  36 100 NE1         N/A
COLCHESTER RF*   N/A     41  36  81 N7          N/A

$$

NYZ007-026>031-035-052-083-180200-
_____NORTHERN NEW YORK_____


CITY           SKY/WX    TMP DP  RH WIND       PRES   REMARKS
PLATTSBURGH    FOG       34  34 100 N5        29.77S VSB 1/2
SARANAC LAKE   CLOUDY    33  32  96 SW6       29.73S FOG
MASSENA        LGT RAIN  35  34  96 W3        29.80S FOG
OGDENSBURG*    DRIZZLE   36  36 100 SW6       29.80S
POTSDAM*       DRIZZLE   36  36 100 W10       29.79F
STARK FALLS*     N/A     36 N/A N/A W8          N/A
WATERTOWN      CLOUDY    39  32  76 W15G25    29.84S
FT DRUM        CLOUDY    35  35  98 W12       29.81S
ALBANY         CLOUDY    38  29  70 NW13G23   29.86S
GLENS FALLS    CLOUDY    38  31  76 SW9       29.81S

$$
NHZ002-005-011-180200-
_____NEW HAMPSHIRE_____


CITY           SKY/WX    TMP DP  RH WIND       PRES   REMARKS
LEBANON        CLOUDY    34  33  96 CALM      29.73F FOG
KEENE          CLOUDY    37  36  93 S5        29.76S
MT WASHINGTON  SNOW      21  21 100 N39G45      N/A  VSB 1/16WCI   1
PLYMOUTH       CLOUDY    40  38  95 W7        29.70S
WHITEFIELD     LGT RAIN  35  33  92 CALM      29.71F

$$

_____REGIONAL QUEBEC LOCATIONS_____


CITY           SKY/WX    TMP DP  RH WIND       PRES   REMARKS
MONTREAL       LGT SNOW  32  32 100 NW2       29.78S FOG
QUEBEC CITY    LGT SNOW  30  28  93 E10       29.79F
SHERBROOKE     LGT SNOW  32  32 100 W2        29.72F

_____REGIONAL ONTARIO LOCATIONS_____


CITY           SKY/WX    TMP DP  RH WIND       PRES   REMARKS
OTTAWA         LGT SNOW  32  32 100 W8        29.78S FOG

______KEY______
VSB  - VISIBILITY IN MILES
WCI  - WIND CHILL INDEX
HX   - HEAT INDEX
$$
NNNN


USA.gov is the U.S. government's official web portal to all federal, state and local government web resources and services.